Regional Weather Roundup
Issued by NWS Midland/Odessa, TX

Skip options and go directly to product.
Home | Oldest Version | Previous Version | Current Version | All | Text Only | Save Text | Print | Product List | Glossary Off

Skip product version selection by date and time.   

500
ASUS44 KMAF 010010
RWRMAF
MIDLAND AREA WEATHER ROUNDUP
NATIONAL WEATHER SERVICE MIDLAND TX
700 PM CDT THU JUN 30 2016

...IN SOUTHWEST TEXAS AND SOUTHEAST NEW MEXICO...

CITY           SKY/WX    TMP DP  RH WIND       PRES   REMARKS
ALPINE         SUNNY     87  47  24 S9        30.12F
ANDREWS        FAIR      93  53  25 SE12G20   29.99F
ARTESIA        MOSUNNY   93  48  21 SE15      29.98F
BIG SPRING     SUNNY     90  58  33 SE9G17    29.99F
CARLSBAD       MOSUNNY   93  48  21 S12G22    29.96F
DRYDEN           N/A     95  57  27 SE14G26   29.92F
FORT STOCKTON  SUNNY     92  54  27 SE16      29.97F
GUAD PASS      CLOUDY    83  48  29 SE14      30.15S
HOBBS          MOSUNNY   91  48  22 SE16G22   30.02S
MARFA          MOSUNNY  N/A N/A N/A SE9       30.10F
MIDLAND AIRPK  SUNNY     93  54  25 SE9G18    29.99S
MIDLAND INTL   SUNNY     93  55  27 SE10      29.98F
ODESSA         MOSUNNY   93  55  27 SE10      29.99F
PECOS          SUNNY     95  53  24 E18       29.92F
PRESIDIO       FAIR      96  53  23 NE7       29.91F
SEMINOLE       MOSUNNY   93  51  24 S10G18    30.01S
SNYDER           N/A     88  64  45 SE8       29.99S
WINK           SUNNY     91  56  30 SE12      29.94F
$$
...OTHER STATIONS IN TEXAS...

CITY           SKY/WX    TMP DP  RH WIND       PRES   REMARKS
ABILENE        SUNNY     90  63  40 SE8       29.97S
AMARILLO       TSTM      73  63  70 S21       30.07R
AUSTIN         MOSUNNY   93  68  43 E12       29.92S
BROWNSVILLE    SUNNY     89  74  60 SE14      29.90S
CORPUS CHRISTI PTSUNNY   89  72  56 SE10      29.89F
DALLAS FTW     PTSUNNY   94  65  38 E10       29.91F
DEL RIO        SUNNY     97  59  28 E8G20     29.86F
EL PASO        PTSUNNY   94  47  20 SE13      29.97F
HOUSTON INT    MOSUNNY   89  71  55 SE12      29.92S
LUBBOCK        PTSUNNY   88  56  33 S17       30.01F
SAN ANGELO     SUNNY    N/A N/A N/A SE6       29.94F
SAN ANTONIO    MOSUNNY   92  68  45 E13       29.92S
WACO           SUNNY     93  65  39 E8        29.93S
WICHITA FALLS  NOT AVBL
$$
...OTHER LOCATIONS IN NEW MEXICO...

CITY           SKY/WX    TMP DP  RH WIND       PRES   REMARKS
ALAMAGORDO     MOSUNNY   91  45  19 S16       30.01F
ALBUQUERQUE    CLOUDY    87  44  22 W8        30.09F
CANNON AFB     LGT RAIN  79  57  47 E20G26    30.06R
CLOVIS         CLOUDY    75  57  53 N14       30.09R THUNDER
HOLLOMAN AFB   SUNNY     94  45  18 S15G25    29.98F
ROSWELL        MOSUNNY   94  46  19 S14       29.98F
RUIDOSO          N/A     81  41  24 SE15G21   30.25S
SANTA FE       CLOUDY    81  44  27 SE22G36   30.17S
TRUTH OR CONSE PTSUNNY   91  39  16 SE12G21   30.04F
TUCUMCARI      PTSUNNY   84  55  36 NE18G26   30.03R
$$

USA.gov is the U.S. government's official web portal to all federal, state and local government web resources and services.